Chennai, India

3:24 AM IST on May 27, 2017 (GMT +0530)
Chennai International

Weather History for VOMM - March, 2014

Change the Weather History Date:

Saturday, March 29, 2014

  Actual Average Record
Temperature  
Mean Temperature 86 °F -  
Max Temperature 98 °F 91 °F 98 °F (2014)
Min Temperature 75 °F 77 °F 75 °F (2007)
Cooling Degree Days 22    
Growing Degree Days 36 (Base 50)    
Moisture  
Dew Point 69 °F    
Average Humidity 59    
Maximum Humidity 89    
Minimum Humidity 25    
Precipitation  
Precipitation 0.00 in 0.02 in - ()
Sea Level Pressure  
Sea Level Pressure 29.80 in    
Wind  
Wind Speed 5 mph ()    
Max Wind Speed 13 mph    
Max Gust Speed -    
Visibility 3.7 miles    
Events      
Averages and records for this station are not official NWS values.
T = Trace of Precipitation, MM = Missing Value Source: Averaged Metar Reports

Daily Weather History Graph

Daily Weather History Graph

Search for Another Location

Airport or City:

Trip Planner

Search our weather history database for the weather conditions in past years. The results will help you decide how hot, cold, wet, or windy it might be!

Date:

Astronomy

Mar. 29, 2014 Rise Set
Actual Time 6:07 AM IST 6:20 PM IST
Civil Twilight 5:46 AM IST 6:41 PM IST
Nautical Twilight 5:21 AM IST 7:06 PM IST
Astronomical Twilight 4:56 AM IST 7:31 PM IST
Moon 4:42 AM IST (3/29) 5:04 PM IST (3/29)
Length of Visible Light 12h 55m
Length of Day
12h 12m
Waning Crescent, 3% of the Moon is Illuminated
Mar 29
Waning Crescent
Mar 31
New
Apr 7
First Quarter
Apr 15
Full
Apr 22
Last Quarter

Hourly Weather History & Observations

Time (IST) Temp. Heat Index Dew Point Humidity Pressure Visibility Wind Dir Wind Speed Gust Speed Precip Events Conditions
12:10 AM 82.4 °F 88.2 °F 73.4 °F 74% 29.86 in 3.7 mi SE 4.6 mph - N/A   Partly Cloudy
12:40 AM 82.4 °F 88.2 °F 73.4 °F 74% 29.86 in 3.7 mi ESE 4.6 mph - N/A   Partly Cloudy
1:10 AM 80.6 °F 85.4 °F 73.4 °F 79% 29.83 in 3.7 mi South 3.5 mph - N/A   Partly Cloudy
1:40 AM 80.6 °F 85.4 °F 73.4 °F 79% 29.83 in 3.7 mi SSW 3.5 mph - N/A   Partly Cloudy
2:30 AM 79 °F - 76 °F 88% 29.82 in 2 mi Calm Calm - -   Clear
2:40 AM 78.8 °F - 73.4 °F 83% 29.80 in 3.1 mi West 4.6 mph - N/A   Haze
3:10 AM 77.0 °F - 71.6 °F 83% 29.80 in 3.1 mi WSW 3.5 mph - N/A   Haze
3:40 AM 77.0 °F - 71.6 °F 83% 29.77 in 3.1 mi WSW 3.5 mph - N/A   Haze
4:10 AM 75.2 °F - 71.6 °F 89% 29.80 in 3.1 mi WSW 3.5 mph - N/A   Haze
4:40 AM 75.2 °F - 71.6 °F 89% 29.80 in 3.1 mi WSW 5.8 mph - N/A   Haze
5:10 AM 77.0 °F - 71.6 °F 83% 29.80 in 3.1 mi SW 8.1 mph - N/A   Haze
5:30 AM 77 °F - 74 °F 89% 29.83 in 2 mi Calm Calm - -   Scattered Clouds
5:40 AM 73.4 °F - 69.8 °F 88% 29.80 in 3.1 mi SW 4.6 mph - N/A   Haze
6:40 AM 75.2 °F - 71.6 °F 89% 29.83 in 1.9 mi SW 4.6 mph - N/A   Haze
7:40 AM 78.8 °F - 73.4 °F 83% 29.86 in 3.1 mi SW 5.8 mph - N/A   Haze
8:10 AM 80.6 °F 85.4 °F 73.4 °F 79% 29.86 in 3.1 mi SW 5.8 mph - N/A   Haze
8:30 AM 83 °F - 74 °F 68% 29.91 in 6 mi South 2.3 mph - -   Scattered Clouds
8:40 AM 82.4 °F 88.2 °F 73.4 °F 74% 29.89 in 3.1 mi WSW 6.9 mph - N/A   Haze
9:40 AM 87.8 °F 95.6 °F 73.4 °F 62% 29.89 in 3.1 mi SSW 6.9 mph - N/A   Haze
10:10 AM 89.6 °F 94.7 °F 69.8 °F 52% 29.86 in 3.1 mi SSE 9.2 mph - N/A   Haze
10:40 AM 91.4 °F 95.4 °F 68.0 °F 46% 29.86 in 3.7 mi SSE 5.8 mph - N/A   Unknown
11:10 AM 93.2 °F 94.9 °F 64.4 °F 38% 29.86 in 3.7 mi SSW 8.1 mph - N/A   Unknown
11:30 AM 96 °F - 66 °F 27% 29.87 in 6 mi South 2.3 mph - -   Scattered Clouds
11:40 AM 95.0 °F 95.2 °F 60.8 °F 32% 29.83 in 3.7 mi SE 11.5 mph - N/A   Unknown
12:10 PM 96.8 °F 95.8 °F 57.2 °F 27% 29.83 in 3.7 mi South 9.2 mph - N/A   Unknown
12:40 PM 98.6 °F 98.5 °F 59.0 °F 27% 29.80 in 3.7 mi South 8.1 mph - N/A   Unknown
1:10 PM 96.8 °F 98.0 °F 62.6 °F 32% 29.77 in 3.7 mi South 10.4 mph - N/A   Unknown
1:40 PM 98.6 °F 102.8 °F 66.2 °F 35% 29.77 in 4.3 mi SSE 11.5 mph - N/A   Unknown
2:10 PM 98.6 °F 100.0 °F 62.6 °F 30% 29.74 in 5.0 mi ESE 11.5 mph - N/A   Unknown
2:30 PM 98 °F - 65 °F 25% 29.74 in 6 mi SE 4.6 mph - -   Clear
2:40 PM 98.6 °F 99.4 °F 60.8 °F 29% 29.74 in 5.0 mi SE 12.7 mph - N/A   Unknown
3:10 PM 98.6 °F 97.6 °F 57.2 °F 25% 29.74 in 5.0 mi SE 9.2 mph - N/A   Unknown
3:40 PM 96.8 °F 96.2 °F 59.0 °F 28% 29.71 in 5.0 mi SSE 8.1 mph - N/A   Unknown
4:10 PM 96.8 °F 98.0 °F 62.6 °F 32% 29.71 in 5.0 mi ESE 12.7 mph - N/A   Unknown
4:40 PM 95.0 °F 93.7 °F 57.2 °F 28% 29.71 in 4.3 mi SSE 8.1 mph - N/A   Unknown
5:10 PM 95.0 °F 96.0 °F 62.6 °F 34% 29.74 in 4.3 mi South 8.1 mph - N/A   Unknown
5:30 PM 92 °F - 71 °F 42% 29.76 in 6 mi SE 3.5 mph - -   Clear
5:40 PM 93.2 °F 91.9 °F 57.2 °F 30% 29.74 in 4.3 mi SSE 10.4 mph - N/A   Unknown
6:10 PM 89.6 °F 89.5 °F 60.8 °F 38% 29.74 in 3.7 mi SSE 9.2 mph - N/A   Unknown
6:40 PM 87.8 °F 91.4 °F 68.0 °F 52% 29.74 in 3.7 mi SSE 6.9 mph - N/A   Unknown
7:10 PM 86.0 °F 89.4 °F 68.0 °F 55% 29.77 in 3.7 mi South 5.8 mph - N/A   Unknown
7:40 PM 86.0 °F 90.4 °F 69.8 °F 58% 29.77 in 3.7 mi SSE 6.9 mph - N/A   Unknown
8:10 PM 84.2 °F 88.4 °F 69.8 °F 62% 29.80 in 3.7 mi SSE 4.6 mph - N/A   Unknown
8:30 PM 84 °F - 73 °F 63% 29.83 in 2 mi Calm Calm - -   Clear
8:40 PM 84.2 °F 88.4 °F 69.8 °F 62% 29.80 in 3.7 mi SSE 4.6 mph - N/A   Unknown
9:10 PM 84.2 °F 89.6 °F 71.6 °F 66% 29.80 in 3.7 mi SSE 4.6 mph - N/A   Unknown
9:40 PM 82.4 °F 87.2 °F 71.6 °F 70% 29.83 in 3.7 mi SSE 4.6 mph - N/A   Unknown
10:10 PM 82.4 °F 88.2 °F 73.4 °F 74% 29.83 in 3.7 mi South 4.6 mph - N/A   Unknown
10:40 PM 82.4 °F 88.2 °F 73.4 °F 74% 29.83 in 3.7 mi South 4.6 mph - N/A   Unknown
11:10 PM 82.4 °F 88.2 °F 73.4 °F 74% 29.83 in 3.7 mi South 4.6 mph - N/A   Unknown
11:30 PM 81 °F - 78 °F 87% 29.84 in 2 mi Calm Calm - -   Clear
11:40 PM 80.6 °F 85.4 °F 73.4 °F 79% 29.80 in 3.7 mi South 5.8 mph - N/A   Unknown